SCP
0 0 0 0 0 0 0 0 0 0 0 0 0 0 0 0 0 0 0 0 0 0 0 0 0 0 0 0 0 0 0 0 0 0 0 0 0 0 0 0 0 0 0 0 0 0 0 0 0
0 0 0 0 0 0 0 0 0 0 0 0 0 0 0 0 0 0 0 0 0 0 0 0 0 0 0 0 0 0 0 0 0 0 0 0 0 0 0 0 0 0 0 0 0 0 0 0 0
0 0 0 0 0 0 0 0 0 0 0 0 0 0 0 0 0 0 0 0 0 0 0 0 0 0 0 0 0 0 0 0 0 0 0 0 0 0 0 0 0 0 0 0 0 0 0 0 0
0 0 0 0 0 0 0 0 0 0 0 0 0 0 0 0 0 0 0 0 0 0 0 0 0 0 0 0 0 0 0 0 0 0 0 0 0 0 0 0 0 0 0 0 0 0 0 0 0
0 0 0 0 0 0 0 0 0 0 0 0 0 0 0 0 0 0 0 0 0 0 0 0 0 0 0 0 0 0 0 0 0 0 0 0 0 0 0 0 0 0 0 0 0 0 0 0 0
0 0 0 0 0 0 0 0 0 0 0 0 0 0 0 0 0 0 0 0 0 0 0 0 0 0 0 0 0 0 0 0 0 0 0 0 0 0 0 0 0 0 0 0 0 0 0 0 0
0 0 0 0 0 0 0 0 0 0 0 0 0 0 0 0 0 0 0 0 0 0 0 0 0 0 0 0 0 0 0 0 0 0 0 0 0 0 0 0 0 0 0 0 0 0 0 0 0
0 0 0 0 0 0 0 0 0 0 0 0 0 0 0 0 0 0 0 0 0 0 0 0 0 0 0 0 0 0 0 0 0 0 0 0 0 0 0 0 0 0 0 0 0 0 0 0 0
0 0 0 0 0 0 0 0 0 0 0 0 0 0 0 0 0 0 0 0 0 0 0 0 0 0 0 0 0 0 0 0 0 0 0 0 0 0 0 0 0 0 0 0 0 0 0 0 0
0 0 0 0 0 0 0 0 0 0 0 0 0 0 0 0 0 0 0 0 0 0 0 0 0 0 0 0 0 0 0 0 0 0 0 0 0 0 0 0 0 0 0 0 0 0 0 0 0
0 0 0 0 0 0 0 0 0 0 0 0 0 0 0 0 0 0 0 0 0 0 0 0 0 0 0 0 0 0 0 0 0 0 0 0 0 0 0 0 0 0 0 0 0 0 0 0 0
0 0 0 0 0 0 0 0 0 0 0 0 0 0 0 0 0 0 0 0 0 0 0 0 0 0 0 0 0 0 0 0 0 0 0 0 0 0 0 0 0 0 0 0 0 0 0 0 0
0 0 0 0 0 0 0 0 0 0 0 0 0 0 0 0 0 0 0 0 0 0 0 0 0 0 0 0 0 0 0 0 0 0 0 0 0 0 0 0 0 0 0 0 0 0 0 0 0
0 0 0 0 0 0 0 0 0 0 0 0 0 0 0 0 0 0 0 0 0 0 0 0 0 0 0 0 0 0 0 0 0 0 0 0 0 0 0 0 0 0 0 0 0 0 0 0 0
0 0 0 0 0 0 0 0 0 0 0 0 0 0 0 0 0 0 0 0 0 0 0 0 0 0 0 0 0 0 0 0 0 0 0 0 0 0 0 0 0 0 0 0 0 0 0 0 0
0 0 0 0 0 0 0 0 0 0 0 0 0 0 0 0 0 0 0 0 0 0 0 0 0 0 0 0 0 0 0 0 0 0 0 0 0 0 0 0 0 0 0 0 0 0 0 0 0
0 0 0 0 0 0 0 0 0 0 0 0 0 0 0 0 0 0 0 0 0 0 0 0 0 0 0 0 0 0 0 0 0 0 0 0 0 0 0 0 0 0 0 0 0 0 0 0 0
0 0 0 0 0 0 0 0 0 0 0 0 0 0 0 0 0 0 0 0 0 0 0 0 0 0 0 0 0 0 0 0 0 0 0 0 0 0 0 0 0 0 0 0 0 0 0 0 0
0 0 0 0 0 0 0 0 0 0 0 0 0 0 0 0 0 0 0 0 0 0 0 0 0 0 0 0 0 0 0 0 0 0 0 0 0 0 0 0 0 0 0 0 0 0 0 0 0
0 0 0 0 0 0 0 0 0 0 0 0 0 0 0 0 0 0 0 0 0 0 0 0 0 0 0 0 0 0 0 0 0 0 0 0 0 0 0 0 0 0 0 0 0 0 0 0 0
0 0 0 0 0 0 0 0 0 0 0 0 0 0 0 0 0 0 0 0 0 0 0 0 0 0 0 0 0 0 0 0 0 0 0 0 0 0 0 0 0 0 0 0 0 0 0 0 0
0 0 0 0 0 0 0 0 0 0 0 0 0 0 0 0 0 0 0 0 0 0 0 0 0 0 0 0 0 0 0 0 0 0 0 0 0 0 0 0 0 0 0 0 0 0 0 0 0
0 0 0 0 0 0 0 0 0 0 0 0 0 0 0 0 0 0 0 0 0 0 0 0 0 0 0 0 0 0 0 0 0 0 0 0 0 0 0 0 0 0 0 0 0 0 0 0 0
0 0 0 0 0 0 0 0 0 0 0 0 0 0 0 0 0 0 0 0 0 0 0 0 0 0 0 0 0 0 0 0 0 0 0 0 0 0 0 0 0 0 0 0 0 0 0 0 0
0 0 0 0 0 0 0 0 0 0 0 0 0 0 0 0 0 0 0 0 0 0 0 0 0 0 0 0 0 0 0 0 0 0 0 0 0 0 0 0 0 0 0 0 0 0 0 0 0
0 0 0 0 0 0 0 0 0 -0 0 0 0 0 0 0 0 0 0 0 0 0 0 0 0 0 0 0 0 0 0 0 0 0 0 0 0 0 0 0 0 0 0 0 0 0 0 0 0
0 0 0 0 0 0 0 0 0 -0 -0 0 0 0 0 0 0 0 0 0 0 0 0 0 0 0 0 0 0 0 0 0 0 0 0 0 0 0 0 0 0 0 0 0 0 0 0 0 0
0 0 0 0 0 0 0 0 0 -0 0 0 0 0 -0 -0 0 0 0 0 0 0 0 0 0 0 0 0 0 0 0 0 0 0 0 0 0 0 0 0 0 0 0 0 0 0 0 0 0
0 0 0 0 0 0 0 0 0 -0 0 0 0 0 -0 -0 -0 0 0 0 0 0 0 0 0 0 0 0 0 0 0 0 0 0 0 0 0 0 0 0 0 0 0 0 0 0 0 0 0
0 0 0 0 0 0 0 0 0 -0 -0 0 0 0 0 0 0 0 0 0 0 0 0 0 0 0 0 0 0 0 0 0 0 0 0 0 0 0 0 0 0 0 0 0 0 0 -0 -0 -0
Wind_Speed
9 5 2 4 6 5 1 1 1 1 1 1 1 3 4 3 3 2 1 1 2 2 1 1 3 3 4 4 5 5 5 6 7 7 7 8 8 8 8 8 7 8 8 9 10 10 9 9 9
3 3 5 6 5 2 2 1 1 0 2 2 3 3 4 2 2 2 1 2 2 2 2 2 4 4 5 5 4 5 5 6 6 7 7 7 7 7 7 7 7 7 8 9 9 9 9 9 8
2 4 5 5 3 4 3 1 2 1 2 2 3 3 2 1 1 0 1 1 3 2 2 2 4 4 5 5 5 5 5 5 6 7 7 7 7 6 7 7 7 8 8 8 9 9 9 9 8
3 5 6 4 2 2 2 1 2 2 2 3 3 3 1 1 1 0 1 3 4 3 2 2 5 4 4 5 5 5 5 6 6 6 6 6 6 6 6 6 7 7 7 7 7 8 8 8 9
5 5 5 1 2 1 1 0 2 2 1 1 2 2 1 1 2 3 3 4 4 3 2 2 5 5 5 5 5 5 5 5 5 6 6 6 6 6 6 7 6 6 6 6 7 7 8 8 8
5 5 3 3 3 1 1 0 2 2 1 1 2 2 1 1 3 3 3 3 3 2 2 3 4 5 5 5 5 5 5 5 5 5 5 6 6 6 6 6 6 6 6 6 7 7 7 7 8
5 4 3 3 2 2 1 1 2 2 1 2 2 3 1 1 2 3 3 3 3 3 3 2 3 4 5 5 4 5 5 5 5 5 6 6 6 6 7 6 6 5 5 6 6 7 7 8 8
4 5 3 3 3 3 1 1 1 2 2 1 2 4 3 3 3 4 4 3 2 2 2 2 3 3 3 3 4 5 5 5 5 6 6 6 6 6 7 6 6 5 5 5 6 6 7 7 8
3 4 3 4 5 3 1 1 1 1 2 1 0 1 1 4 5 5 3 2 1 1 1 1 2 2 2 2 3 3 4 4 4 4 5 4 3 3 4 5 6 6 5 5 6 6 6 7 7
4 3 3 2 3 3 2 2 2 1 1 1 1 0 3 5 6 6 4 3 2 1 0 0 1 1 2 2 2 1 2 2 2 2 2 2 2 2 3 5 6 6 6 6 6 6 6 5 3
3 3 2 0 1 2 2 1 2 3 2 4 5 4 5 5 5 5 5 4 4 2 1 0 0 1 1 1 1 1 1 1 1 2 2 2 2 2 2 2 3 3 4 3 4 4 3 2 2
3 1 1 1 0 1 1 1 0 2 4 2 3 6 7 7 7 6 5 4 2 2 2 1 1 0 1 1 1 0 0 0 1 1 2 2 1 1 1 1 1 2 1 2 2 2 2 2 2
2 1 1 1 1 1 1 0 1 3 3 1 2 5 7 7 6 4 3 2 2 2 2 2 1 1 0 1 0 0 0 1 1 1 1 2 1 1 1 1 1 1 1 1 1 2 2 2 2
1 1 1 2 1 1 1 1 1 5 1 0 3 5 6 5 4 3 2 3 2 3 3 2 1 1 1 0 0 1 0 0 1 1 1 1 1 1 1 1 1 1 0 1 1 1 1 1 1
2 2 2 2 1 0 1 3 3 2 1 1 3 4 4 4 4 4 4 4 3 3 2 2 2 1 1 1 1 0 1 1 1 1 1 1 1 1 1 1 0 0 0 1 1 2 1 1 2
2 2 1 2 1 1 2 5 2 1 2 2 2 3 3 3 4 4 3 3 3 2 2 2 1 1 2 1 1 0 1 1 1 1 1 1 1 1 1 1 0 0 1 1 1 1 1 1 1
3 1 1 3 1 1 1 5 4 1 2 3 3 3 4 3 3 3 3 3 3 3 2 2 1 2 2 1 0 0 0 1 1 1 1 1 1 1 1 1 0 1 1 1 1 1 1 1 1
2 1 1 2 1 1 2 6 6 2 3 4 4 4 4 5 6 3 2 2 2 2 2 2 1 1 1 1 1 0 1 1 1 0 1 1 1 1 1 1 1 1 1 1 1 1 1 1 1
2 2 1 2 1 1 3 8 9 4 3 5 5 5 5 6 4 2 2 2 2 2 2 2 2 2 1 1 1 1 0 0 0 0 0 1 1 1 1 1 1 1 1 1 1 1 1 2 2
1 1 1 2 2 1 4 8 7 4 5 6 6 6 6 5 3 2 3 3 4 4 4 3 3 3 2 1 1 1 1 0 0 0 0 0 0 0 1 1 1 1 1 1 1 1 1 1 1
0 2 2 1 3 1 4 7 4 3 2 3 5 5 5 6 6 4 3 4 4 4 4 4 4 3 3 2 1 1 1 1 0 0 1 1 0 0 0 1 1 1 2 1 2 1 2 2 1
2 2 2 1 1 3 2 4 7 3 5 5 5 5 6 5 5 4 4 4 4 5 4 3 3 3 2 2 2 2 2 2 2 1 0 0 0 0 0 1 1 1 1 1 2 2 1 3 2
2 0 1 1 1 2 1 2 9 2 5 6 6 6 6 6 5 5 5 5 4 3 3 3 3 2 2 2 3 3 2 2 1 1 1 0 0 0 0 1 1 1 1 1 1 1 2 2 2
2 1 2 2 2 2 2 3 8 5 7 5 4 5 5 5 5 5 4 3 3 2 2 2 3 2 2 3 3 3 3 2 1 1 1 1 0 0 0 0 1 1 2 2 2 2 2 2 2
1 3 4 5 4 5 2 3 11 7 6 6 6 6 5 5 5 5 4 4 3 3 2 2 3 3 3 3 3 4 4 3 3 3 2 2 1 1 1 1 1 1 2 2 2 2 2 2 2
2 3 5 3 4 5 2 7 10 5 4 4 5 5 5 5 5 5 5 5 4 4 3 3 4 3 3 3 3 3 3 2 2 2 2 2 2 2 1 1 1 1 1 2 2 2 2 2 2
3 2 2 4 1 2 6 8 11 3 3 3 3 3 5 5 5 5 5 5 5 4 5 5 4 3 3 3 2 2 2 2 2 1 1 1 1 1 1 1 1 1 1 2 2 2 2 2 2
1 4 3 3 2 4 6 6 6 5 5 4 4 5 6 5 5 5 4 4 4 4 4 4 4 4 3 3 3 2 2 2 2 2 2 1 1 1 1 1 1 2 2 2 2 2 2 2 2
3 2 3 3 3 4 4 9 7 7 5 6 7 6 6 6 5 5 4 4 3 3 3 4 4 3 3 3 2 2 2 2 2 2 2 1 1 1 1 2 2 2 2 2 2 2 3 3 2
2 4 5 3 4 3 3 11 4 5 4 4 6 5 5 5 5 4 4 3 3 4 4 4 4 4 4 3 3 3 2 2 2 2 2 1 1 1 2 1 2 2 2 2 3 4 3 3 3
Wind_Direction
339 340 40 55 58 56 148 243 167 82 59 17 56 100 122 123 143 171 357 45 64 76 35 38 68 82 93 90 101 105 102 98 92 90 86 82 76 74 77 80 77 75 75 78 78 75 76 77 77
336 1 48 55 86 115 252 245 187 215 130 86 54 64 84 79 40 66 7 348 66 84 63 49 63 75 88 87 92 105 104 98 94 91 86 85 80 76 75 80 78 75 76 77 78 75 73 75 77
1 46 70 70 107 173 201 212 190 68 84 75 75 59 89 101 71 148 310 69 72 62 52 53 66 77 83 88 85 95 95 94 93 90 85 79 78 77 74 77 76 74 73 73 77 76 74 72 75
61 50 58 75 170 220 205 190 147 123 72 58 108 100 80 49 161 203 103 96 85 57 42 56 68 74 78 79 82 89 95 90 88 86 81 76 75 72 70 73 76 74 71 70 75 77 76 74 73
58 74 72 70 226 250 252 168 143 128 117 63 111 120 103 17 80 100 105 98 95 70 46 57 66 66 71 75 73 74 94 91 86 85 82 77 75 70 68 67 72 73 73 72 73 74 77 76 75
61 72 103 197 220 253 285 350 125 109 117 97 115 128 175 87 99 113 106 98 98 90 58 58 57 57 60 66 67 63 72 87 85 85 82 78 74 67 64 63 66 68 72 71 70 70 70 73 74
103 105 150 177 187 240 250 117 140 143 148 190 162 142 195 177 138 121 106 94 82 76 64 53 51 50 51 55 57 62 59 68 78 79 75 70 66 63 62 60 63 62 66 68 71 71 71 72 72
115 111 134 176 182 226 232 107 108 147 187 126 140 159 205 205 144 117 100 92 84 71 60 46 43 47 44 44 55 54 56 60 73 74 70 68 63 57 57 55 56 52 62 67 67 70 73 70 69
89 91 183 193 184 205 166 141 14 65 112 94 154 194 200 140 133 121 110 99 91 68 45 54 48 51 47 42 50 48 53 55 72 73 69 66 55 52 52 51 48 50 53 58 61 63 64 63 63
78 148 206 193 174 173 179 176 168 114 93 209 234 178 123 133 145 148 155 169 178 198 305 58 52 58 51 46 36 29 43 48 67 73 68 59 49 49 55 54 53 50 52 52 54 55 52 49 45
79 152 163 174 161 160 164 186 163 152 222 217 207 192 154 155 163 171 182 189 199 198 197 213 115 69 68 58 44 26 39 53 78 88 79 72 59 46 50 57 46 41 45 43 43 41 39 41 45
91 66 117 242 250 145 163 165 182 207 227 235 208 172 164 172 182 186 192 202 199 198 214 212 191 119 87 72 65 35 136 113 114 112 101 97 83 63 50 59 53 48 41 44 40 43 40 42 51
76 67 12 27 37 86 88 177 227 261 266 305 132 154 173 183 192 193 190 190 196 211 218 215 200 179 131 99 141 88 230 171 136 107 101 108 111 100 77 72 67 60 54 60 57 49 42 40 43
113 76 350 351 33 29 93 284 249 275 298 131 157 173 184 189 196 190 191 198 207 225 228 208 207 207 160 161 214 202 85 154 130 122 121 124 127 132 121 101 83 49 51 68 77 69 54 36 41
109 63 7 348 342 345 53 314 242 272 74 207 182 191 193 200 197 204 211 208 207 214 223 208 202 199 192 201 209 176 104 73 119 119 106 117 129 144 146 138 110 349 68 94 87 71 70 56 50
71 64 342 321 1 2 105 271 268 163 130 233 225 215 210 220 218 221 221 216 206 199 208 219 198 199 214 211 207 149 102 91 100 101 89 79 80 118 141 146 181 183 126 116 114 93 78 55 44
47 72 268 306 20 46 157 260 274 158 167 235 238 231 226 235 245 238 229 216 208 200 204 221 220 201 211 197 181 113 100 73 68 96 89 64 68 82 127 153 189 143 119 98 112 101 100 82 50
196 195 234 260 331 47 253 267 281 242 210 234 238 243 233 236 237 224 218 215 210 201 202 215 226 228 198 153 127 97 51 37 22 63 69 68 65 75 93 81 32 96 116 101 99 104 81 98 84
143 150 211 266 343 346 265 276 282 270 232 241 242 239 240 245 244 214 206 215 211 210 210 208 207 220 178 172 183 196 228 329 315 277 84 83 89 106 117 121 78 74 111 116 123 124 113 77 85
126 152 276 313 5 355 304 285 276 252 233 228 229 232 236 247 258 228 205 206 213 215 214 211 208 208 204 208 210 188 148 181 252 333 37 101 124 142 163 154 146 132 129 115 126 127 127 99 91
148 192 215 276 331 5 330 309 288 266 257 251 234 229 231 229 237 236 225 220 221 222 221 219 214 213 211 200 135 87 79 56 33 321 326 7 109 149 156 173 168 154 152 177 184 173 156 154 143
239 207 186 237 15 322 21 301 288 281 290 261 245 235 236 235 234 238 238 238 232 232 225 221 218 215 205 178 176 172 182 211 224 218 203 26 54 153 187 173 164 161 163 186 194 174 178 155 167
198 186 162 184 159 319 351 248 283 303 271 259 247 237 237 233 228 233 235 238 239 231 218 214 210 216 198 181 192 189 203 224 212 166 165 215 330 233 218 179 167 171 175 187 178 157 160 163 165
164 63 53 58 59 294 232 202 276 244 231 249 243 236 232 230 231 234 237 240 243 227 211 203 196 211 202 193 199 198 205 207 197 210 204 226 246 286 307 212 189 187 189 196 195 176 169 174 165
96 87 30 4 0 259 211 220 253 252 235 227 234 236 232 225 225 232 234 234 233 221 211 208 200 219 202 196 203 203 208 202 206 214 208 208 221 241 260 237 229 212 205 197 182 168 181 183 176
175 141 150 195 240 282 269 239 254 254 258 251 247 235 229 225 224 229 230 227 227 221 209 204 209 222 210 203 209 199 198 200 214 217 202 205 216 222 215 211 214 218 200 189 176 170 181 177 185
137 156 144 126 87 292 272 279 295 258 265 257 252 240 237 235 233 233 230 227 227 221 214 208 208 215 210 204 201 191 187 187 198 196 184 208 228 218 196 204 210 207 195 191 172 178 186 177 188
117 140 107 123 156 273 288 271 258 268 259 261 255 249 250 247 246 243 234 232 232 222 218 211 207 209 208 193 191 187 184 186 187 175 184 196 209 207 178 196 210 207 195 188 176 180 179 176 193
140 135 135 131 166 179 276 271 228 229 235 239 243 242 242 244 245 241 237 230 229 221 207 206 203 199 200 197 184 174 179 169 169 182 204 210 210 207 211 209 204 199 193 188 181 189 184 192 200
190 189 165 172 228 206 235 269 260 231 251 244 252 253 249 243 242 235 228 223 218 216 212 207 203 199 202 192 178 179 182 172 180 198 207 194 211 222 212 201 196 190 191 192 191 200 196 196 199